TimeEDT,TemperatureF,Dew PointF,Humidity,Sea Level PressureIn,VisibilityMPH,Wind Direction,Wind SpeedMPH,Gust SpeedMPH,PrecipitationIn,Events,Conditions,WindDirDegrees,DateUTC
12:56 AM,42.1,35.1,76,30.52,10.0,ENE,5.8,-,N/A,,Overcast,70,2013-04-23 04:56:00
1:56 AM,42.1,36.0,79,30.49,10.0,East,9.2,-,N/A,,Overcast,80,2013-04-23 05:56:00
2:43 AM,42.8,37.4,81,30.47,6.0,ENE,10.4,-,N/A,,Overcast,60,2013-04-23 06:43:00
2:56 AM,42.1,39.0,89,30.47,4.0,ENE,5.8,-,N/A,,Overcast,60,2013-04-23 06:56:00
3:12 AM,41.0,39.2,93,30.46,2.5,NE,5.8,-,N/A,,Overcast,50,2013-04-23 07:12:00
3:27 AM,41.0,39.2,93,30.45,2.0,NE,6.9,-,N/A,,Overcast,40,2013-04-23 07:27:00
3:56 AM,41.0,39.9,96,30.45,1.8,NNE,5.8,-,N/A,,Overcast,30,2013-04-23 07:56:00
4:43 AM,42.8,41.0,93,30.44,2.0,NE,6.9,-,0.02,Rain,Light Rain,40,2013-04-23 08:43:00
4:56 AM,42.1,41.0,96,30.44,2.0,NE,6.9,-,0.03,Rain,Light Rain,40,2013-04-23 08:56:00
5:47 AM,42.8,41.0,93,30.43,4.0,NNE,6.9,-,0.01,,Overcast,30,2013-04-23 09:47:00
5:56 AM,42.1,41.0,96,30.43,4.0,NE,9.2,-,0.01,,Overcast,40,2013-04-23 09:56:00
6:56 AM,43.0,42.1,97,30.41,4.0,ENE,11.5,-,0.00,Rain,Light Rain,60,2013-04-23 10:56:00
7:56 AM,44.1,42.1,93,30.41,4.0,ENE,8.1,-,0.01,Rain,Light Rain,70,2013-04-23 11:56:00
8:56 AM,45.0,43.0,93,30.39,6.0,ENE,9.2,-,0.00,Rain,Light Rain,60,2013-04-23 12:56:00
9:56 AM,45.0,44.1,97,30.38,7.0,ENE,9.2,20.7,0.00,,Overcast,60,2013-04-23 13:56:00
10:56 AM,46.0,44.1,93,30.36,5.0,NE,13.8,17.3,0.01,Rain,Light Rain,50,2013-04-23 14:56:00
11:56 AM,46.0,45.0,96,30.34,4.0,NE,13.8,-,0.02,Rain,Light Rain,40,2013-04-23 15:56:00
12:56 PM,46.0,45.0,96,30.30,5.0,NE,17.3,24.2,0.03,Rain,Light Rain,40,2013-04-23 16:56:00
1:56 PM,46.0,44.1,93,30.27,4.0,NE,13.8,20.7,0.03,Rain,Light Rain,40,2013-04-23 17:56:00
2:56 PM,46.0,45.0,96,30.23,4.0,NE,13.8,24.2,0.05,Rain,Light Rain,40,2013-04-23 18:56:00
3:56 PM,45.0,44.1,97,30.20,4.0,NE,16.1,21.9,0.06,Rain,Rain,50,2013-04-23 19:56:00
4:56 PM,45.0,44.1,97,30.16,4.0,NE,17.3,29.9,0.08,Rain,Light Rain,40,2013-04-23 20:56:00
5:54 PM,44.6,44.6,100,30.14,2.5,NE,13.8,24.2,0.05,Rain,Light Rain,40,2013-04-23 21:54:00
5:56 PM,45.0,44.1,97,30.14,2.0,NE,15.0,24.2,0.05,Rain,Rain,40,2013-04-23 21:56:00
6:06 PM,44.6,44.6,100,30.14,1.5,NNE,15.0,28.8,0.01,Rain,Light Rain,30,2013-04-23 22:06:00
6:56 PM,45.0,44.1,97,30.13,2.0,NNE,15.0,20.7,0.06,Rain,Light Rain,20,2013-04-23 22:56:00
7:16 PM,44.6,44.6,100,30.11,3.0,NNE,16.1,24.2,0.01,Rain,Light Rain,30,2013-04-23 23:16:00
7:56 PM,45.0,44.1,97,30.10,5.0,NNE,15.0,24.2,0.04,Rain,Light Rain,30,2013-04-23 23:56:00
8:56 PM,45.0,44.1,97,30.07,4.0,NNE,19.6,26.5,0.06,Rain,Rain,30,2013-04-24 00:56:00
9:14 PM,44.6,44.6,100,30.06,2.5,NNE,16.1,24.2,0.05,Rain,Rain,20,2013-04-24 01:14:00
9:21 PM,44.6,44.6,100,30.06,5.0,NNE,19.6,27.6,0.06,Rain,Rain,20,2013-04-24 01:21:00
9:56 PM,44.1,44.1,100,30.05,4.0,NNE,18.4,28.8,0.11,Rain,Rain,20,2013-04-24 01:56:00
10:51 PM,44.6,42.8,93,30.00,2.5,North,17.3,29.9,0.22,Rain,Heavy Rain,10,2013-04-24 02:51:00
10:56 PM,44.1,44.1,100,30.00,3.0,North,17.3,29.9,0.23,Rain,Heavy Rain,10,2013-04-24 02:56:00
11:20 PM,44.6,44.6,100,29.98,2.5,NNE,19.6,29.9,0.11,Rain,Heavy Rain,20,2013-04-24 03:20:00
11:56 PM,44.1,44.1,100,29.96,2.0,NNE,20.7,32.2,0.33,Rain,Heavy Rain,20,2013-04-24 03:56:00